Weather History for Kansas City International, MO

Change the Weather History Date:

Thursday, January 31, 2013

  Actual Average Record
Temperature  
Mean Temperature 14 °F 30 °F  
Max Temperature 22 °F 39 °F 70 °F (2009)
Min Temperature 5 °F 20 °F -10 °F (1985)
Degree Days  
Heating Degree Days 51 35  
Month to date heating degree days 989 1114  
Since 1 July heating degree days 2827 3164  
Cooling Degree Days 0 0  
Month to date cooling degree days 0 0  
Year to date cooling degree days 0 0  
Moisture  
Dew Point 5 °F    
Average Humidity 69    
Maximum Humidity 84    
Minimum Humidity 54    
Precipitation  
Precipitation T in 0.04 in 0.83 in (1988)
Month to date precipitation 1.03 1.07  
Year to date precipitation 1.03 1.07  
Snow  
Snow T in 0.20 in 4.00 in (1981)
Month to date snowfall 1.0 4.6  
Since 1 July snowfall 4.7 10.8  
Snow Depth 1.00 in    
Sea Level Pressure  
Sea Level Pressure 30.23 in    
Wind  
Wind Speed 11 mph (WNW)    
Max Wind Speed 29 mph    
Max Gust Speed 38 mph    
Visibility 10 miles    
Events      
T = Trace of Precipitation, MM = Missing Value Source: NWS Daily Summary

Daily Weather History Graph

Daily Weather History Graph

Search for Another Location

Airport:

Trip Planner

Search our weather history database for the weather conditions in past years. The results will help you decide how hot, cold, wet, or windy it might be!

Date:

Astronomy

Jan. 31, 2013 Rise Set
Actual Time 7:26 AM CST 5:38 PM CST
Civil Twilight 6:58 AM CST 6:07 PM CST
Nautical Twilight 6:26 AM CST 6:39 PM CST
Astronomical Twilight 5:54 AM CST 7:10 PM CST
Moon 10:39 PM CST (1/31) 9:28 AM CST (1/31)
Length of Visible Light 11h 08m
Length of Day
10h 12m
Waning Gibbous, 79% of the Moon is Illuminated
Jan 31
Waning Gibbous
Feb 3
Last Quarter
Feb 10
New
Feb 17
First Quarter
Feb 25
Full

Hourly Weather History & Observations

Time (CST) Temp. Windchill Dew Point Humidity Pressure Visibility Wind Dir Wind Speed Gust Speed Precip Events Conditions
12:53 AM 19.0 °F 10.0 °F 12.9 °F 77% 29.99 in 10.0 mi WSW 6.9 mph - N/A   Clear
1:53 AM 19.9 °F 12.1 °F 14.0 °F 78% 29.98 in 10.0 mi SW 5.8 mph - N/A   Mostly Cloudy
2:53 AM 21.0 °F 12.4 °F 15.1 °F 78% 29.99 in 10.0 mi SW 6.9 mph - N/A   Overcast
3:53 AM 21.9 °F 14.5 °F 15.1 °F 75% 29.97 in 10.0 mi WSW 5.8 mph - N/A   Overcast
4:53 AM 19.9 °F 12.1 °F 15.1 °F 81% 30.00 in 10.0 mi NNW 5.8 mph - N/A   Mostly Cloudy
5:53 AM 21.0 °F 11.4 °F 14.0 °F 74% 30.00 in 10.0 mi NW 8.1 mph - N/A   Overcast
6:53 AM 19.9 °F 7.3 °F 10.9 °F 68% 30.05 in 10.0 mi NNW 12.7 mph - N/A   Overcast
7:53 AM 18.0 °F 6.1 °F 9.0 °F 68% 30.09 in 10.0 mi NW 10.4 mph - N/A   Scattered Clouds
8:53 AM 17.1 °F 3.6 °F 5.0 °F 59% 30.12 in 10.0 mi NNW 12.7 mph - N/A   Mostly Cloudy
9:53 AM 17.1 °F 5.0 °F 6.1 °F 62% 30.16 in 10.0 mi NW 10.4 mph - N/A   Mostly Cloudy
10:53 AM 17.1 °F 2.0 °F 3.9 °F 56% 30.20 in 10.0 mi NW 16.1 mph - N/A   Overcast
11:53 AM 17.1 °F 2.5 °F 5.0 °F 59% 30.24 in 10.0 mi NW 15.0 mph 23.0 mph N/A   Overcast
12:53 PM 18.0 °F 0.2 °F 3.9 °F 54% 30.25 in 10.0 mi NW 24.2 mph 35.7 mph N/A   Overcast
2:53 PM 12.0 °F -5.6 °F -0.0 °F 59% 30.31 in 10.0 mi NW 18.4 mph 25.3 mph 0.00 in   Mostly Cloudy
3:53 PM 12.9 °F -4.4 °F -0.9 °F 54% 30.32 in 10.0 mi NW 18.4 mph 25.3 mph N/A   Mostly Cloudy
4:53 PM 12.0 °F -2.7 °F -0.9 °F 56% 30.35 in 10.0 mi NW 12.7 mph 21.9 mph N/A   Scattered Clouds
5:53 PM 10.4 °F -3.3 °F -2.2 °F 57% 30.33 in 10.0 mi NW 10.4 mph - N/A   Scattered Clouds
6:53 PM 10.0 °F -7.1 °F -2.9 °F 56% 30.41 in 10.0 mi NNW 16.1 mph - N/A   Partly Cloudy
7:53 PM 8.1 °F -2.0 °F -2.9 °F 61% 30.44 in 10.0 mi NW 5.8 mph - N/A   Clear
8:53 PM 7.0 °F -4.5 °F -2.9 °F 64% 30.46 in 10.0 mi WNW 6.9 mph - N/A   Clear
9:53 PM 7.0 °F -3.3 °F -2.0 °F 67% 30.50 in 10.0 mi West 5.8 mph - N/A   Clear
10:53 PM 6.1 °F -5.6 °F -2.0 °F 69% 30.52 in 10.0 mi West 6.9 mph - N/A   Clear
11:53 PM 5.0 °F -4.1 °F -2.9 °F 70% 30.51 in 10.0 mi NW 4.6 mph - N/A   Clear